Theta_e
327 319 321 320 304 301 296 298 305 306 307 310 312 310 307 306 305 301 313 317 323 323 325 330 335 336 338 336 335 334 333 331 330 330 331 331 328 327 327 326 326 325 325 325 324 323 322 322 322
317 317 316 314 298 293 296 301 302 305 309 311 311 311 309 303 311 310 310 320 321 322 325 328 335 338 337 335 334 333 331 329 330 331 330 328 330 327 327 326 325 324 324 324 323 322 321 321 321
318 317 309 304 299 294 295 301 304 308 310 310 306 308 307 304 310 310 315 318 318 318 327 331 336 337 335 335 333 332 330 329 329 329 328 329 327 325 325 325 324 323 323 323 322 321 320 320 320
313 312 310 299 297 300 301 305 307 306 307 309 308 300 304 310 311 313 317 319 319 321 327 332 335 336 335 333 332 331 329 328 328 328 327 327 324 324 324 323 322 322 322 321 321 320 319 319 318
312 309 299 296 296 302 307 309 310 306 306 306 305 299 301 309 314 315 316 319 318 321 326 329 333 335 334 332 331 329 328 326 327 325 324 325 323 323 322 322 321 320 320 320 319 318 317 317 317
305 306 296 294 297 302 306 309 310 308 309 305 304 302 302 309 313 314 316 316 318 320 324 325 325 331 332 331 330 328 327 326 325 324 324 324 322 322 321 320 319 319 318 318 317 316 315 315 314
303 300 296 298 300 302 306 309 307 307 306 305 307 301 302 307 313 314 314 315 316 319 320 320 321 326 328 329 328 328 326 325 324 323 322 322 320 320 319 317 317 316 316 316 315 314 312 312 311
307 302 297 298 299 302 307 308 310 308 304 307 306 300 297 307 313 313 313 314 314 315 316 317 319 322 324 323 325 325 325 323 322 320 319 319 319 318 317 317 315 314 314 313 312 310 309 307 306
310 299 296 298 300 305 309 307 309 308 305 304 305 303 306 312 312 310 309 310 311 313 313 315 317 321 321 320 319 321 321 320 319 315 316 316 311 312 311 315 313 312 311 310 308 304 303 303 302
302 297 298 305 307 305 308 308 307 304 304 302 301 303 309 311 309 307 307 306 307 308 311 313 315 318 319 319 318 317 315 312 312 310 309 309 306 308 307 309 310 307 305 305 302 299 298 298 291
302 297 303 306 309 310 308 307 307 304 302 304 301 303 307 308 307 307 306 307 307 309 310 312 314 316 315 316 317 316 314 310 310 308 308 307 305 305 305 301 300 297 301 293 294 293 292 291 291
297 302 304 307 308 308 307 307 303 304 302 306 308 306 307 307 306 306 306 306 307 308 308 310 314 314 313 314 314 315 311 310 308 308 307 305 304 302 301 300 298 294 292 291 291 291 291 290 291
298 300 304 305 306 307 309 306 304 303 303 305 307 307 307 307 307 307 307 306 306 306 307 308 310 313 316 315 312 314 311 308 306 307 306 305 303 301 299 297 296 292 292 292 291 291 291 291 291
300 301 302 304 306 307 305 305 306 306 304 303 305 306 307 307 307 306 305 304 304 304 305 306 306 309 314 315 313 313 309 307 303 303 304 304 302 300 298 296 293 292 292 292 292 291 291 290 291
301 296 300 302 304 305 305 302 301 305 305 303 303 304 307 307 307 306 305 305 304 303 302 300 299 302 306 311 312 311 308 307 301 301 303 302 300 298 297 295 292 292 292 292 292 291 292 291 292
297 297 292 299 303 304 302 297 305 307 304 302 302 302 304 306 307 306 306 305 305 303 302 299 299 297 299 304 310 310 308 306 303 299 300 300 299 298 295 294 293 293 293 292 292 291 291 291 290
295 287 291 295 303 301 300 298 302 305 303 303 302 302 302 303 305 306 306 305 305 304 302 298 296 296 298 301 307 308 307 305 305 303 299 299 300 299 296 295 294 294 293 292 293 292 291 290 290
288 289 291 291 299 300 297 297 301 302 302 302 303 302 301 301 303 305 305 305 305 304 302 298 296 298 299 303 304 305 305 304 304 304 302 301 300 299 297 297 296 295 293 293 293 292 292 291 291
293 292 291 294 297 298 297 297 300 300 300 300 302 301 302 302 303 305 305 304 303 303 301 299 295 296 300 301 301 301 300 302 303 303 304 303 301 301 298 297 296 295 293 293 294 293 292 291 292
293 291 291 292 294 294 294 295 299 300 300 302 302 302 303 303 303 303 303 303 302 303 302 300 297 295 300 301 301 301 301 301 303 304 304 304 303 301 299 298 297 296 294 294 294 294 292 292 293
292 291 291 290 292 291 289 289 293 297 300 302 304 304 304 304 304 302 302 302 302 302 302 301 299 297 298 300 301 299 299 299 300 301 301 302 303 302 300 298 298 296 296 294 294 294 293 291 292
288 295 294 291 289 284 289 280 288 293 296 299 300 301 303 303 305 305 303 302 302 303 304 303 301 298 297 299 299 298 294 295 294 297 299 300 302 302 301 300 298 297 296 295 294 296 294 293 291
291 296 294 292 289 285 284 280 285 290 291 294 296 299 300 301 304 305 304 304 304 304 303 304 302 300 298 297 297 296 292 293 294 295 297 298 299 301 301 300 298 297 297 295 295 294 294 294 292
296 293 292 290 288 279 285 283 283 287 290 291 292 292 294 293 293 295 303 306 305 305 304 303 302 301 299 297 295 294 293 293 293 293 294 295 296 298 299 300 299 298 297 296 295 295 294 293 293
294 289 281 277 277 278 282 282 286 289 289 289 290 292 292 291 292 293 293 298 304 304 304 304 303 301 300 297 296 295 294 294 294 294 293 293 294 295 296 297 298 299 298 298 297 296 295 293 292
290 289 282 274 276 277 280 277 285 288 290 290 290 292 293 292 295 294 294 296 297 303 303 303 302 301 301 298 297 296 296 295 295 295 294 294 294 294 296 296 297 297 299 298 298 296 295 294 291
288 285 290 281 274 277 280 283 288 289 289 290 291 293 292 293 294 295 295 296 297 298 302 303 302 301 300 299 297 297 296 296 296 296 295 294 295 296 295 295 295 296 296 297 297 296 294 294 292
289 291 283 282 271 273 277 279 282 285 286 289 289 290 291 293 294 295 296 296 297 298 299 301 301 300 300 299 298 298 297 297 296 296 295 295 295 295 294 294 294 294 295 294 294 294 294 293 293
284 285 286 285 283 278 276 279 284 288 288 288 290 292 291 291 292 293 296 297 297 298 298 298 299 299 299 299 298 297 297 297 297 296 296 295 295 295 294 293 293 293 293 293 292 292 292 293 293
286 287 288 281 278 279 279 280 287 290 290 291 291 292 291 292 291 292 294 296 296 296 296 297 297 297 298 298 297 297 297 297 296 295 295 295 295 295 294 294 293 293 292 292 292 291 293 292 291
Wind_Speed
11 12 5 3 3 3 7 11 7 5 3 5 7 6 9 11 5 4 6 7 10 10 10 8 8 6 16 20 19 18 16 17 16 15 15 15 15 16 16 16 17 17 17 18 18 18 18 18 18
7 10 2 4 2 6 6 10 7 5 9 9 5 1 6 6 7 10 7 8 9 7 9 8 6 14 19 19 18 17 16 16 14 15 15 14 16 16 15 16 16 16 17 17 17 17 17 17 17
6 8 2 4 6 8 7 3 10 9 7 6 5 5 4 5 10 9 11 9 8 7 12 8 10 17 18 19 19 17 18 15 14 15 14 15 14 15 15 16 16 16 16 17 17 17 17 17 17
4 2 4 5 11 16 19 5 15 9 4 5 5 8 6 5 7 9 9 10 8 9 13 9 12 17 18 19 18 17 18 14 15 14 14 14 14 14 15 15 15 15 16 16 16 16 16 16 16
3 4 6 6 11 12 7 6 9 6 8 7 3 6 6 5 11 12 9 9 7 11 12 10 13 13 17 19 18 17 17 13 14 13 13 14 14 13 14 14 14 14 15 15 15 15 15 15 15
3 3 8 9 11 10 2 5 2 7 7 6 4 8 5 9 10 9 8 9 7 12 12 8 9 7 15 17 17 18 17 14 14 13 13 13 13 14 14 14 14 14 14 14 15 15 15 15 15
6 5 9 14 7 5 4 4 5 5 6 5 2 6 6 9 11 8 8 8 7 11 11 9 6 8 14 14 16 17 19 14 14 14 13 12 12 13 14 13 13 13 13 14 14 14 14 14 14
3 5 15 13 7 6 4 7 8 4 4 2 7 6 7 13 13 10 7 7 8 5 8 7 7 6 10 9 13 17 20 17 15 14 13 12 11 12 12 11 12 12 12 12 13 13 13 14 13
5 4 7 14 12 7 8 7 2 4 7 3 3 5 10 20 14 9 7 7 6 5 7 7 7 7 11 10 10 13 15 17 13 9 8 8 5 7 8 11 12 12 11 11 11 10 9 11 11
5 5 13 12 10 5 12 8 9 4 8 4 6 4 18 18 15 13 11 9 8 7 7 8 7 8 9 8 8 7 7 5 5 5 6 3 7 7 9 9 12 11 11 10 9 5 5 8 4
7 11 16 7 5 6 5 6 8 6 8 9 12 13 15 16 12 13 11 10 9 8 5 8 8 8 7 7 4 4 4 4 4 6 4 6 5 4 4 3 4 4 7 3 3 5 4 6 4
10 13 15 6 3 4 3 2 3 6 1 8 13 21 17 15 15 14 13 12 11 11 8 8 11 10 6 4 3 5 4 4 4 4 3 3 3 4 5 3 4 3 2 3 4 3 3 4 4
12 12 14 5 1 6 8 7 6 9 6 8 17 17 17 15 14 11 10 10 9 11 10 8 8 11 9 6 3 4 5 4 5 5 5 4 4 4 4 4 4 4 3 3 3 3 3 3 3
6 11 14 6 6 5 4 6 7 8 12 9 13 14 15 15 15 10 10 10 10 10 10 9 7 7 9 8 6 5 5 5 5 4 5 5 4 4 4 4 4 4 4 3 4 3 3 2 2
6 8 9 5 7 5 5 8 8 3 11 11 9 10 12 13 12 14 11 10 11 9 9 9 8 7 7 8 6 4 5 5 5 5 6 5 3 4 5 4 4 4 3 4 3 1 1 1 2
8 6 8 9 10 3 5 7 16 10 10 11 11 10 10 12 14 11 11 11 12 11 12 10 10 9 8 7 5 5 5 4 5 5 5 7 6 6 4 4 4 4 4 3 3 3 3 3 3
7 5 13 11 11 6 8 6 3 11 9 9 11 10 10 9 11 10 11 10 13 12 13 11 9 9 9 8 5 5 7 5 4 5 5 7 7 7 5 4 4 6 4 4 3 3 3 3 3
7 10 10 14 9 9 8 11 5 7 8 9 9 10 11 10 12 11 12 11 12 12 11 10 8 9 9 6 5 4 5 4 4 5 5 7 6 7 5 4 5 5 4 4 3 4 3 3 3
8 7 15 10 3 6 11 10 12 10 8 9 9 9 11 12 13 11 11 12 10 10 12 13 12 9 8 5 5 4 5 4 4 4 7 7 6 7 6 4 5 5 5 5 5 4 5 3 2
13 7 10 3 4 2 6 12 12 9 11 13 11 10 10 10 13 14 14 12 11 12 13 14 14 12 10 6 4 3 4 4 4 4 5 6 7 7 7 6 5 6 4 6 6 5 3 3 4
14 10 6 5 4 2 3 9 10 11 12 11 13 9 10 12 15 16 16 15 13 14 15 15 15 13 11 8 5 4 3 2 4 4 4 5 7 7 7 7 6 6 5 5 6 5 6 4 4
16 10 4 7 5 4 6 6 6 13 16 17 11 11 10 11 11 16 17 16 16 16 13 13 14 14 11 11 10 11 5 6 4 4 4 5 7 7 7 7 7 6 5 6 5 5 4 4 4
7 7 5 3 5 3 5 3 7 4 7 10 9 10 9 7 9 15 19 20 18 14 14 13 13 13 12 12 9 8 6 5 4 4 7 7 7 8 7 8 7 6 5 6 7 5 6 5 4
6 4 4 2 4 5 9 7 7 5 6 5 6 5 4 3 2 4 6 14 13 12 11 12 13 13 12 14 11 11 10 7 5 6 5 5 4 5 7 7 7 6 6 6 6 7 7 6 5
12 10 2 1 4 7 5 6 11 3 1 4 4 6 5 2 1 2 2 3 9 12 13 12 13 12 12 14 13 9 9 9 8 7 6 6 5 4 7 7 7 6 6 6 6 6 7 6 6
18 15 6 8 5 5 4 7 8 3 4 3 1 5 5 4 2 3 0 4 4 7 10 10 10 9 11 12 10 8 8 5 6 6 4 5 5 5 6 7 7 7 7 7 7 5 5 6 6
7 13 3 7 1 3 6 6 3 7 5 6 7 7 7 7 5 6 4 2 3 4 7 9 8 7 8 9 7 7 7 7 6 7 6 5 6 5 7 8 8 8 8 8 7 6 6 6 6
7 7 4 2 5 4 4 4 8 7 9 8 8 8 8 7 7 6 5 5 4 4 4 6 7 7 7 8 7 7 7 7 6 6 7 7 6 7 7 7 8 8 8 8 7 6 6 7 7
4 7 6 4 5 5 3 6 1 10 10 9 8 8 8 8 7 6 6 5 5 5 5 5 5 5 5 6 7 7 6 7 7 7 6 7 6 7 7 7 7 8 8 8 8 8 8 10 10
3 5 13 7 6 2 2 6 6 8 9 10 8 7 7 7 8 7 6 6 6 6 6 5 4 5 5 5 6 6 6 6 7 7 7 7 7 7 7 7 9 9 9 9 11 12 11 12 11
Wind_Direction
299 292 188 347 283 221 252 231 247 83 86 75 30 23 94 43 29 109 156 113 117 117 125 96 68 89 128 111 107 101 103 99 98 102 93 91 90 89 89 85 83 82 80 79 78 76 75 73 74
293 301 279 266 241 288 246 232 154 36 98 82 77 296 54 82 78 117 122 120 122 133 129 95 62 123 118 112 108 105 105 98 97 93 92 90 86 90 88 87 83 82 82 81 79 77 75 75 76
266 265 269 222 225 246 267 279 96 95 123 132 109 22 30 82 111 152 122 128 137 140 92 90 96 120 117 115 109 109 105 98 100 90 97 87 92 90 89 86 86 85 84 82 81 80 77 75 72
316 245 261 262 255 222 235 24 110 118 56 4 88 90 76 290 137 118 140 139 144 125 102 88 107 117 121 114 109 110 108 102 102 98 96 96 96 97 91 89 87 86 84 82 80 78 75 72 69
221 261 244 242 254 275 351 42 122 144 137 157 194 133 97 45 98 126 144 130 133 113 113 89 85 123 121 117 115 112 107 110 102 107 104 94 100 96 93 91 91 88 86 83 81 78 75 71 66
290 236 258 246 223 252 80 351 190 173 137 86 147 122 96 134 134 146 145 132 155 120 112 107 90 102 118 117 116 112 103 107 106 105 106 104 106 100 97 93 90 89 87 85 83 80 77 72 66
249 278 277 286 296 215 189 159 242 192 131 158 351 100 119 164 147 143 156 144 131 131 128 141 117 110 107 111 116 113 104 101 98 97 97 91 106 103 100 96 93 90 89 86 84 81 78 73 67
282 255 263 262 273 279 176 157 177 164 113 22 12 151 164 169 145 156 129 129 135 143 123 135 120 121 110 105 103 109 113 105 100 93 92 88 91 109 111 95 96 94 91 89 86 82 79 75 68
296 270 258 254 254 188 145 161 271 355 125 142 66 56 120 141 146 144 137 149 135 156 144 133 122 111 112 111 105 108 114 114 105 124 144 150 153 117 73 94 99 94 90 88 86 82 82 90 81
197 227 252 268 358 326 152 192 147 167 148 133 96 69 125 141 156 155 163 170 157 171 161 143 127 117 122 126 133 137 140 122 126 159 207 210 77 84 90 86 95 99 101 101 97 81 35 49 59
223 240 264 312 33 322 154 204 147 210 187 187 171 154 150 154 165 169 175 177 166 170 155 154 136 121 140 144 170 152 132 132 154 161 210 102 109 134 127 133 128 144 146 142 100 57 51 45 49
248 256 255 283 45 318 245 244 169 232 61 20 156 157 160 170 178 176 182 173 168 165 165 173 144 146 148 145 194 155 132 148 141 170 161 128 162 165 147 152 133 135 114 118 104 87 101 90 77
236 246 269 249 41 274 290 223 199 211 137 81 119 146 165 179 178 181 181 161 164 163 160 178 157 153 161 159 203 159 135 142 161 156 175 176 166 162 142 132 142 136 142 139 126 151 137 116 84
239 226 259 234 256 228 254 247 168 229 143 131 143 164 173 186 180 176 177 161 168 160 160 170 167 167 162 164 182 190 139 165 147 155 182 201 162 153 141 144 144 150 166 163 153 163 161 143 143
281 287 270 222 238 242 203 255 208 232 140 151 178 173 177 185 184 183 176 166 166 163 162 162 171 174 188 179 181 177 150 155 152 169 170 188 167 160 150 160 165 174 163 148 116 111 123 177 212
213 252 255 223 202 197 189 248 228 177 163 181 183 179 174 185 184 186 171 165 167 166 166 161 173 175 186 189 188 172 152 155 170 173 160 177 183 171 164 166 177 171 144 163 171 182 204 216 198
205 215 222 265 169 142 191 260 40 142 175 200 182 178 172 179 182 182 174 170 167 169 163 166 166 172 185 190 187 161 154 158 193 171 168 180 185 179 174 181 189 164 165 185 190 200 182 206 230
204 218 250 219 194 216 194 251 196 186 195 216 204 178 170 185 190 177 172 173 167 169 162 161 170 170 177 186 162 162 150 168 200 185 180 178 181 186 185 190 188 165 173 196 198 193 206 205 227
237 228 221 258 94 181 231 241 240 195 201 209 231 195 177 185 178 176 177 170 163 168 167 169 170 177 171 179 167 175 168 180 200 192 188 183 179 182 186 202 191 176 187 200 199 190 205 238 233
253 265 262 118 124 159 257 255 241 233 206 198 197 214 189 173 168 173 179 170 172 177 176 173 179 178 178 175 174 160 159 191 184 191 193 191 184 183 181 195 202 186 188 212 208 189 195 216 195
229 233 243 263 140 278 331 274 241 244 243 206 201 205 197 181 177 173 176 181 178 181 187 183 179 179 180 167 159 158 165 210 178 192 191 199 193 193 187 191 201 198 186 202 209 196 188 197 239
221 215 266 132 141 243 165 276 284 230 216 218 214 194 214 187 176 169 174 182 187 191 189 184 177 177 179 169 180 184 183 184 190 181 173 186 198 205 192 195 199 202 193 203 206 198 187 175 216
207 215 163 172 226 14 201 269 253 356 192 200 209 197 205 224 174 170 179 184 189 183 186 186 179 178 176 182 179 181 185 183 171 175 182 193 198 202 200 191 201 206 201 200 207 205 199 194 189
136 95 100 167 241 255 216 182 272 215 223 171 132 136 119 100 60 51 160 174 179 172 174 179 182 182 172 181 180 188 190 184 188 183 186 194 190 195 206 200 192 201 206 205 203 211 205 201 206
155 162 135 281 232 226 340 224 240 203 85 104 127 109 85 31 253 135 153 142 170 167 176 177 183 185 176 182 187 186 184 192 195 186 177 180 187 193 205 198 195 200 200 207 205 206 212 205 205
187 181 151 190 204 204 345 231 248 96 96 103 151 97 117 136 101 108 127 195 190 164 162 168 178 178 176 176 185 188 191 194 203 191 177 189 196 197 186 198 198 200 205 206 207 205 209 204 212
182 217 173 106 64 72 208 263 255 157 148 162 151 151 127 114 105 115 113 107 132 148 162 160 161 170 166 169 173 187 195 200 201 204 192 189 196 200 197 195 198 201 204 207 203 209 212 207 209
196 152 159 272 136 235 244 251 236 202 176 159 159 139 128 122 110 102 95 92 85 115 118 130 151 171 169 167 170 184 194 196 195 198 206 205 206 206 197 201 199 201 207 205 204 210 208 208 216
164 190 198 166 176 187 201 250 156 191 156 162 140 134 123 111 102 99 104 98 96 98 107 115 129 150 167 169 169 179 195 195 192 201 210 208 203 209 209 204 204 204 206 204 206 210 209 216 219
327 216 198 190 214 181 136 276 325 124 140 129 128 116 110 112 111 108 101 110 111 116 119 136 141 156 171 168 167 189 193 195 201 207 209 209 214 211 213 208 210 213 212 208 211 215 218 220 219